Luverne, MN

11:45 PM CDT on April 25, 2017 (GMT -0500)
Luverne

Weather History for KLYV - February, 2012

Change the Weather History Date:

Sunday, February 5, 2012

  Actual Average (KPQN) Record (KPQN)
Temperature  
Mean Temperature 32 °F -  
Max Temperature 37 °F 27 °F 55 °F (2005)
Min Temperature 26 °F 10 °F -7 °F (2007)
Degree Days  
Heating Degree Days 34    
Moisture  
Dew Point 27 °F    
Average Humidity 88    
Maximum Humidity 100    
Minimum Humidity 70    
Precipitation  
Precipitation 0.00 in - - ()
Sea Level Pressure  
Sea Level Pressure 30.34 in    
Wind  
Wind Speed 8 mph (NW)    
Max Wind Speed 13 mph    
Max Gust Speed -    
Visibility 5 miles    
Events      
Averages and records for this station are not official NWS values.
T = Trace of Precipitation, MM = Missing Value Source: NWS Daily Summary

Daily Weather History Graph

Daily Weather History Graph

Search for Another Location

Airport or City:

Trip Planner

Search our weather history database for the weather conditions in past years. The results will help you decide how hot, cold, wet, or windy it might be!

Date:

Astronomy

Feb. 05, 2012 Rise Set
Actual Time 7:37 AM CST 5:40 PM CST
Civil Twilight 7:07 AM CST 6:11 PM CST
Nautical Twilight 6:33 AM CST 6:45 PM CST
Astronomical Twilight 5:59 AM CST 7:18 PM CST
Moon 3:38 PM CST (2/5) 5:51 AM CST (2/5)
Length of Visible Light 11h 04m
Length of Day
10h 03m
Waxing Gibbous, 95% of the Moon is Illuminated
Feb 5
Waxing Gibbous
Feb 7
Full
Feb 14
Last Quarter
Feb 21
New
Feb 29
First Quarter

Hourly Weather History & Observations

Time (CST) Temp. Windchill Dew Point Humidity Pressure Visibility Wind Dir Wind Speed Gust Speed Precip Events Conditions
12:16 AM 26.6 °F 16.8 °F 24.8 °F 93% 30.37 in 2.0 mi NNW 10.4 mph - N/A   Overcast
12:36 AM 26.6 °F 15.7 °F 26.6 °F 100% 30.36 in 3.0 mi NNW 12.7 mph - N/A   Overcast
12:56 AM 26.6 °F 16.2 °F 24.8 °F 93% 30.36 in 2.0 mi NNW 11.5 mph - N/A   Overcast
1:17 AM 26.6 °F 18.2 °F 24.8 °F 93% 30.36 in 2.5 mi NW 8.1 mph - N/A   Overcast
1:36 AM 26.6 °F 16.2 °F 24.8 °F 93% 30.36 in 1.8 mi NNW 11.5 mph - N/A   Overcast
1:56 AM 26.6 °F 16.8 °F 24.8 °F 93% 30.36 in 1.5 mi NNW 10.4 mph - N/A   Overcast
2:16 AM 26.6 °F 18.2 °F 24.8 °F 93% 30.37 in 1.8 mi NW 8.1 mph - N/A   Overcast
2:36 AM 26.6 °F 17.5 °F 24.8 °F 93% 30.37 in 1.8 mi North 9.2 mph - N/A   Overcast
2:56 AM 26.6 °F 17.5 °F 24.8 °F 93% 30.37 in 2.0 mi North 9.2 mph - N/A   Overcast
3:16 AM 26.6 °F 18.2 °F 26.6 °F 100% 30.37 in 1.5 mi NNW 8.1 mph - N/A   Overcast
3:36 AM 26.6 °F 19.1 °F 26.6 °F 100% 30.37 in 2.0 mi North 6.9 mph - N/A   Overcast
3:56 AM 26.6 °F 18.2 °F 26.6 °F 100% 30.36 in 1.8 mi North 8.1 mph - N/A   Overcast
4:17 AM 28.4 °F 20.4 °F 26.6 °F 93% 30.36 in 1.5 mi NNW 8.1 mph - N/A   Overcast
4:36 AM 28.4 °F 22.2 °F 26.6 °F 93% 30.36 in 2.0 mi NNW 5.8 mph - N/A   Overcast
4:56 AM 28.4 °F 21.2 °F 26.6 °F 93% 30.36 in 1.8 mi NNW 6.9 mph - N/A   Overcast
5:17 AM 28.4 °F 21.2 °F 26.6 °F 93% 30.36 in 2.0 mi NNW 6.9 mph - N/A   Overcast
5:36 AM 28.4 °F 20.4 °F 26.6 °F 93% 30.36 in 2.0 mi NNW 8.1 mph - N/A   Overcast
5:57 AM 28.4 °F 20.4 °F 26.6 °F 93% 30.36 in 2.5 mi NW 8.1 mph - N/A   Overcast
6:16 AM 28.4 °F 21.2 °F 26.6 °F 93% 30.36 in 3.0 mi NNW 6.9 mph - N/A   Overcast
6:36 AM 28.4 °F 22.2 °F 26.6 °F 93% 30.36 in 3.0 mi NNW 5.8 mph - N/A   Overcast
6:56 AM 28.4 °F 21.2 °F 26.6 °F 93% 30.36 in 3.0 mi NW 6.9 mph - N/A   Overcast
7:16 AM 28.4 °F 22.2 °F 26.6 °F 93% 30.36 in 3.0 mi NW 5.8 mph - N/A   Overcast
7:36 AM 28.4 °F 21.2 °F 26.6 °F 93% 30.36 in 3.0 mi NNW 6.9 mph - N/A   Overcast
7:56 AM 28.4 °F 21.2 °F 26.6 °F 93% 30.37 in 3.0 mi NW 6.9 mph - N/A   Overcast
8:17 AM 28.4 °F 20.4 °F 26.6 °F 93% 30.36 in 3.0 mi NW 8.1 mph - N/A   Overcast
8:36 AM 28.4 °F 23.3 °F 26.6 °F 93% 30.36 in 2.5 mi NW 4.6 mph - N/A   Overcast
8:56 AM 26.6 °F 22.6 °F 26.6 °F 100% 30.37 in 3.0 mi WNW 3.5 mph - N/A   Overcast
9:17 AM 28.4 °F 22.2 °F 26.6 °F 93% 30.37 in 3.0 mi WNW 5.8 mph - N/A   Overcast
9:36 AM 28.4 °F 24.6 °F 26.6 °F 93% 30.38 in 4.0 mi NW 3.5 mph - N/A   Overcast
9:56 AM 28.4 °F 23.3 °F 26.6 °F 93% 30.37 in 4.0 mi WNW 4.6 mph - N/A   Overcast
10:16 AM 28.4 °F 22.2 °F 26.6 °F 93% 30.37 in 4.0 mi WNW 5.8 mph - N/A   Overcast
10:36 AM 28.4 °F 21.2 °F 26.6 °F 93% 30.37 in 4.0 mi WNW 6.9 mph - N/A   Overcast
10:57 AM 28.4 °F 22.2 °F 26.6 °F 93% 30.37 in 5.0 mi NW 5.8 mph - N/A   Overcast
11:16 AM 28.4 °F 23.3 °F 26.6 °F 93% 30.37 in 5.0 mi WNW 4.6 mph - N/A   Overcast
11:36 AM 28.4 °F 22.2 °F 26.6 °F 93% 30.37 in 5.0 mi West 5.8 mph - N/A   Overcast
11:57 AM 30.2 °F 22.6 °F 26.6 °F 86% 30.36 in 7.0 mi WNW 8.1 mph - N/A   Overcast
12:16 PM 30.2 °F 24.3 °F 26.6 °F 86% 30.35 in 7.0 mi West 5.8 mph - N/A   Overcast
12:36 PM 32.0 °F 25.6 °F 28.4 °F 87% 30.34 in 7.0 mi West 6.9 mph - N/A   Overcast
12:56 PM 32.0 °F 25.6 °F 26.6 °F 80% 30.34 in 7.0 mi NW 6.9 mph - N/A   Mostly Cloudy
1:16 PM 32.0 °F 25.6 °F 28.4 °F 87% 30.33 in 7.0 mi WNW 6.9 mph - N/A   Mostly Cloudy
1:37 PM 33.8 °F 27.7 °F 28.4 °F 81% 30.32 in 10.0 mi West 6.9 mph - N/A   Scattered Clouds
1:56 PM 35.6 °F 29.2 °F 28.4 °F 75% 30.32 in 10.0 mi WNW 8.1 mph - N/A   Clear
2:16 PM 35.6 °F 29.2 °F 28.4 °F 75% 30.31 in 10.0 mi West 8.1 mph - N/A   Clear
2:36 PM 35.6 °F 28.6 °F 28.4 °F 75% 30.30 in 10.0 mi West 9.2 mph - N/A   Clear
2:56 PM 37.4 °F 30.8 °F 28.4 °F 70% 30.29 in 10.0 mi West 9.2 mph - N/A   Clear
3:16 PM 37.4 °F 30.8 °F 28.4 °F 70% 30.29 in 10.0 mi WNW 9.2 mph - N/A   Clear
3:37 PM 37.4 °F 30.8 °F 28.4 °F 70% 30.29 in 10.0 mi WNW 9.2 mph - N/A   Clear
3:57 PM 37.4 °F 30.8 °F 28.4 °F 70% 30.28 in 10.0 mi West 9.2 mph - N/A   Clear
4:16 PM 37.4 °F 30.8 °F 28.4 °F 70% 30.28 in 10.0 mi West 9.2 mph - N/A   Clear
4:37 PM 37.4 °F 32.1 °F 28.4 °F 70% 30.28 in 10.0 mi West 6.9 mph - N/A   Clear
4:56 PM 37.4 °F 32.1 °F 28.4 °F 70% 30.28 in 10.0 mi West 6.9 mph - N/A   Clear
5:16 PM 35.6 °F 29.9 °F 28.4 °F 75% 30.28 in 10.0 mi West 6.9 mph - N/A   Clear
5:37 PM 33.8 °F 28.6 °F 28.4 °F 81% 30.28 in 10.0 mi West 5.8 mph - N/A   Clear
5:57 PM 32.0 °F 25.6 °F 28.4 °F 87% 30.28 in 10.0 mi West 6.9 mph - N/A   Clear
6:16 PM 32.0 °F 28.7 °F 26.6 °F 80% 30.28 in 10.0 mi WSW 3.5 mph - N/A   Clear
6:37 PM 30.2 °F 24.3 °F 26.6 °F 86% 30.28 in 10.0 mi West 5.8 mph - N/A   Clear
6:56 PM 30.2 °F 23.4 °F 26.6 °F 86% 30.27 in 10.0 mi WSW 6.9 mph - N/A   Clear
7:16 PM 28.4 °F 21.2 °F 24.8 °F 86% 30.27 in 10.0 mi WSW 6.9 mph - N/A   Clear
7:36 PM 28.4 °F 22.2 °F 24.8 °F 86% 30.27 in 10.0 mi WSW 5.8 mph - N/A   Clear
7:56 PM 28.4 °F 23.3 °F 24.8 °F 86% 30.26 in 10.0 mi SW 4.6 mph - N/A   Clear
8:17 PM 26.6 °F - 24.8 °F 93% 30.26 in 10.0 mi Calm Calm - N/A   Clear
8:36 PM 26.6 °F 22.6 °F 23.0 °F 86% 30.26 in 10.0 mi WSW 3.5 mph - N/A   Clear
8:56 PM 26.6 °F - 23.0 °F 86% 30.25 in 10.0 mi Calm Calm - N/A   Clear
9:17 PM 26.6 °F - 23.0 °F 86% 30.25 in 10.0 mi Calm Calm - N/A   Clear
9:37 PM 26.6 °F - 23.0 °F 86% 30.25 in 10.0 mi Calm Calm - N/A   Clear
9:56 PM 26.6 °F - 23.0 °F 86% 30.25 in 10.0 mi Calm Calm - N/A   Clear
10:17 PM 26.6 °F - 23.0 °F 86% 30.25 in 10.0 mi Calm Calm - N/A   Clear
10:36 PM 26.6 °F - 23.0 °F 86% 30.24 in 7.0 mi Calm Calm - N/A   Clear
10:56 PM 26.6 °F - 23.0 °F 86% 30.24 in 10.0 mi Calm Calm - N/A   Clear
11:17 PM 24.8 °F - 23.0 °F 93% 30.24 in 7.0 mi Calm Calm - N/A   Clear
11:37 PM 21.2 °F 14.9 °F 19.4 °F 93% 30.23 in 7.0 mi SSW 4.6 mph - N/A   Scattered Clouds
11:56 PM 24.8 °F 20.5 °F 23.0 °F 93% 30.23 in 0.8 mi SSW 3.5 mph - N/A   Overcast